| time (UTC) | temp C | wind direction | speed KPH | gust KPH | rain 1hr cm | rain 24hr cm | rain mn cm | humidity % | barometer mb |
| 20260901201151 | 26 | 173 | 1.6 | 3.2 | 0.00 | 0.00 | 0.00 | 58 | 1019.1 |
| 20260901200651 | 26 | 298 | 1.6 | 11.3 | 0.00 | 0.00 | 0.00 | 59 | 1019.2 |
| 20260901200147 | 26 | 73 | 3.2 | 9.7 | 0.00 | 0.00 | 0.00 | 58 | 1019.1 |
| 20260901195643 | 26 | 156 | 4.8 | 4.8 | 0.00 | 0.00 | 0.00 | 58 | 1019.3 |
| 20260901195138 | 26 | 113 | 1.6 | 12.9 | 0.00 | 0.00 | 0.00 | 59 | 1019.3 |
| 20260901194633 | 26 | 166 | 1.6 | 4.8 | 0.00 | 0.00 | 0.00 | 59 | 1019.2 |
| 20260901194129 | 26 | 155 | 1.6 | 9.7 | 0.00 | 0.00 | 0.00 | 59 | 1019.6 |
| 20260901193624 | 26 | 15 | 1.6 | 9.7 | 0.00 | 0.00 | 0.00 | 59 | 1019.4 |
| 20260901193118 | 26 | 119 | 1.6 | 3.2 | 0.00 | 0.00 | 0.00 | 60 | 1019.7 |
| 20260901192613 | 26 | 69 | 1.6 | 3.2 | 0.00 | 0.00 | 0.00 | 60 | 1019.4 |
| 20260901192108 | 26 | 98 | 3.2 | 3.2 | 0.00 | 0.00 | 0.00 | 59 | 1019.6 |
| 20260901191604 | 26 | 13 | 4.8 | 6.4 | 0.00 | 0.00 | 0.00 | 60 | 1019.6 |
| 20260901191100 | 26 | 180 | 4.8 | 11.3 | 0.00 | 0.00 | 0.00 | 58 | 1019.6 |
| 20260901190556 | 26 | 303 | 3.2 | 11.3 | 0.00 | 0.00 | 0.00 | 59 | 1019.6 |
| 20260901190055 | 26 | 140 | 0.0 | 4.8 | 0.00 | 0.00 | 0.00 | 60 | 1019.8 |
| 20260901185553 | 26 | 186 | 6.4 | 9.7 | 0.00 | 0.00 | 0.00 | 59 | 1019.7 |
| 20260901185052 | 26 | 90 | 3.2 | 9.7 | 0.00 | 0.00 | 0.00 | 58 | 1019.4 |
| 20260901184548 | 26 | 305 | 9.7 | 12.9 | 0.00 | 0.00 | 0.00 | 58 | 1019.7 |
| 20260901184043 | 26 | 162 | 3.2 | 4.8 | 0.00 | 0.00 | 0.00 | 58 | 1019.6 |
| 20260901183538 | 26 | 267 | 3.2 | 4.8 | 0.00 | 0.00 | 0.00 | 58 | 1019.7 |
| 20260901183033 | 26 | 63 | 1.6 | 4.8 | 0.00 | 0.00 | 0.00 | 59 | 1019.7 |
| 20260901182529 | 26 | 163 | 0.0 | 4.8 | 0.00 | 0.00 | 0.00 | 59 | 1019.6 |
| 20260901182024 | 26 | 148 | 1.6 | 6.4 | 0.00 | 0.00 | 0.00 | 57 | 1019.8 |
| 20260901181524 | 26 | 262 | 1.6 | 3.2 | 0.00 | 0.00 | 0.00 | 57 | 1019.7 |
| 20260901181023 | 26 | 141 | 0.0 | 3.2 | 0.00 | 0.00 | 0.00 | 59 | 1019.4 |
| 20260901180521 | 25 | 172 | 3.2 | 4.8 | 0.00 | 0.00 | 0.00 | 56 | 1019.6 |
| 20260901180016 | 26 | 231 | 3.2 | 4.8 | 0.00 | 0.00 | 0.00 | 56 | 1019.4 |
| 20260901175510 | 25 | 87 | 0.0 | 4.8 | 0.00 | 0.00 | 0.00 | 59 | 1019.4 |
| 20260901175004 | 25 | 179 | 3.2 | 4.8 | 0.00 | 0.00 | 0.00 | 61 | 1019.3 |
| 20260901174500 | 24 | 115 | 0.0 | 1.6 | 0.00 | 0.00 | 0.00 | 62 | 1019.4 |
| 20260901173956 | 24 | 103 | 0.0 | 1.6 | 0.00 | 0.00 | 0.00 | 63 | 1019.6 |
| 20260901173451 | 23 | 210 | 4.8 | 9.7 | 0.00 | 0.00 | 0.00 | 63 | 1019.6 |
| 20260901172947 | 23 | 296 | 1.6 | 1.6 | 0.00 | 0.00 | 0.00 | 65 | 1019.6 |
| 20260901172443 | 23 | 66 | 0.0 | 4.8 | 0.00 | 0.00 | 0.00 | 66 | 1019.4 |
| 20260901171940 | 23 | 52 | 1.6 | 1.6 | 0.00 | 0.00 | 0.00 | 67 | 1019.4 |
| 20260901171439 | 23 | 226 | 1.6 | 3.2 | 0.00 | 0.00 | 0.00 | 67 | 1019.1 |
| 20260901170938 | 22 | 110 | 3.2 | 3.2 | 0.00 | 0.00 | 0.00 | 69 | 1019.3 |
| 20260901170433 | 22 | 102 | 3.2 | 3.2 | 0.00 | 0.00 | 0.00 | 70 | 1019.2 |
| 20260901165932 | 22 | 105 | 0.0 | 0.0 | 0.00 | 0.00 | 0.00 | 73 | 1019.3 |
| 20260901165427 | 21 | 175 | 0.0 | 1.6 | 0.00 | 0.00 | 0.00 | 75 | 1019.7 |
| 20260901164924 | 21 | 120 | 3.2 | 3.2 | 0.00 | 0.00 | 0.00 | 78 | 1019.8 |
| 20260901164419 | 20 | 225 | 3.2 | 4.8 | 0.00 | 0.00 | 0.00 | 78 | 1019.7 |
| 20260901163919 | 20 | 271 | 4.8 | 6.4 | 0.00 | 0.00 | 0.00 | 78 | 1019.9 |
| 20260901163414 | 20 | 289 | 4.8 | 6.4 | 0.00 | 0.00 | 0.00 | 79 | 1019.8 |
| 20260901162908 | 20 | 203 | 1.6 | 4.8 | 0.00 | 0.00 | 0.00 | 79 | 1019.8 |
| 20260901162408 | 21 | 41 | 3.2 | 6.4 | 0.00 | 0.00 | 0.00 | 79 | 1019.6 |
| 20260901161907 | 20 | 81 | 0.0 | 1.6 | 0.00 | 0.00 | 0.00 | 79 | 1019.6 |
| 20260901161407 | 21 | 222 | 3.2 | 6.4 | 0.00 | 0.00 | 0.00 | 79 | 1019.4 |
| 20260901160901 | 21 | 94 | 0.0 | 1.6 | 0.00 | 0.00 | 0.00 | 78 | 1019.4 |
| 20260901160358 | 20 | 98 | 0.0 | 1.6 | 0.00 | 0.00 | 0.00 | 79 | 1019.4 |
| 20260901155857 | 20 | 94 | 0.0 | 0.0 | 0.00 | 0.00 | 0.00 | 83 | 1019.7 |
| 20260901155352 | 19 | 85 | 3.2 | 4.8 | 0.00 | 0.00 | 0.00 | 82 | 1019.1 |
| 20260901154849 | 19 | 116 | 1.6 | 3.2 | 0.00 | 0.00 | 0.00 | 84 | 1019.2 |
| 20260901154348 | 18 | 136 | 0.0 | 1.6 | 0.00 | 0.00 | 0.00 | 84 | 1019.2 |
| 20260901153843 | 17 | 139 | 0.0 | 1.6 | 0.00 | 0.00 | 0.00 | 88 | 1019.3 |
| 20260901153337 | 17 | 74 | 0.0 | 0.0 | 0.00 | 0.00 | 0.00 | 91 | 1019.4 |
| 20260901152836 | 16 | 164 | 0.0 | 0.0 | 0.00 | 0.00 | 0.00 | 93 | 1019.2 |
| 20260901152336 | 16 | 81 | 0.0 | 0.0 | 0.00 | 0.00 | 0.00 | 98 | 1019.3 |
| 20260901151831 | 15 | 104 | 0.0 | 0.0 | 0.00 | 0.00 | 0.00 | 99 | 1019.3 |
| 20260901151326 | 15 | 151 | 0.0 | 0.0 | 0.00 | 0.00 | 0.00 | 99 | 1019.4 |
| 20260901150820 | 15 | 139 | 0.0 | 0.0 | 0.00 | 0.00 | 0.00 | 99 | 1019.3 |
| 20260901150318 | 15 | 196 | 0.0 | 0.0 | 0.00 | 0.00 | 0.00 | 99 | 1019.4 |
| 20260901145815 | 15 | 115 | 0.0 | 0.0 | 0.00 | 0.00 | 0.00 | 99 | 1019.3 |
| 20260901145314 | 15 | 226 | 0.0 | 0.0 | 0.00 | 0.00 | 0.00 | 99 | 1019.4 |
| 20260901144805 | 15 | 180 | 0.0 | 0.0 | 0.00 | 0.00 | 0.00 | 99 | 1019.2 |
| 20260901144301 | 15 | 119 | 0.0 | 0.0 | 0.00 | 0.00 | 0.00 | 99 | 1019.2 |
| 20260901143756 | 15 | 141 | 0.0 | 0.0 | 0.00 | 0.00 | 0.00 | 99 | 1019.1 |
| 20260901143253 | 15 | 145 | 0.0 | 0.0 | 0.00 | 0.00 | 0.00 | 99 | 1018.9 |
| 20260901142749 | 15 | 154 | 0.0 | 0.0 | 0.00 | 0.00 | 0.00 | 99 | 1018.9 |
| 20260901142247 | 14 | 141 | 0.0 | 0.0 | 0.00 | 0.00 | 0.00 | 99 | 1018.9 |
| 20260901141742 | 14 | 137 | 0.0 | 0.0 | 0.00 | 0.00 | 0.00 | 99 | 1018.9 |
| 20260901141237 | 14 | 169 | 0.0 | 0.0 | 0.00 | 0.00 | 0.00 | 99 | 1018.8 |
| 20260901140736 | 13 | 144 | 0.0 | 0.0 | 0.00 | 0.00 | 0.00 | 99 | 1018.7 |
| 20260901140234 | 13 | 121 | 0.0 | 0.0 | 0.00 | 0.00 | 0.00 | 99 | 1018.3 |
| 20260901135729 | 13 | 133 | 0.0 | 0.0 | 0.00 | 0.00 | 0.00 | 99 | 1018.5 |
| 20260901135224 | 13 | 142 | 0.0 | 0.0 | 0.00 | 0.00 | 0.00 | 99 | 1018.3 |
| 20260901134720 | 13 | 142 | 0.0 | 0.0 | 0.00 | 0.00 | 0.00 | 99 | 1018.4 |
| 20260901134220 | 13 | 131 | 0.0 | 1.6 | 0.00 | 0.00 | 0.00 | 99 | 1018.2 |
| 20260901133719 | 13 | 103 | 3.2 | 4.8 | 0.00 | 0.00 | 0.00 | 99 | 1018.3 |
| 20260901133218 | 13 | 102 | 1.6 | 3.2 | 0.00 | 0.00 | 0.00 | 99 | 1018.1 |
| 20260901132718 | 13 | 110 | 0.0 | 1.6 | 0.00 | 0.00 | 0.00 | 99 | 1018.3 |
| 20260901132218 | 13 | 121 | 0.0 | 4.8 | 0.00 | 0.00 | 0.00 | 99 | 1018.1 |
| 20260901131713 | 13 | 94 | 3.2 | 6.4 | 0.00 | 0.00 | 0.00 | 99 | 1018.2 |
| 20260901131206 | 13 | 82 | 3.2 | 6.4 | 0.00 | 0.00 | 0.00 | 99 | 1018.2 |
| 20260901130701 | 14 | 122 | 0.0 | 3.2 | 0.00 | 0.00 | 0.00 | 99 | 1018.3 |
| 20260901130200 | 14 | 114 | 0.0 | 1.6 | 0.00 | 0.00 | 0.00 | 99 | 1018.5 |
| 20260901125659 | 14 | 112 | 0.0 | 1.6 | 0.00 | 0.00 | 0.00 | 99 | 1018.5 |
| 20260901125154 | 14 | 148 | 0.0 | 0.0 | 0.00 | 0.00 | 0.00 | 99 | 1018.5 |
| 20260901124649 | 14 | 134 | 0.0 | 0.0 | 0.00 | 0.00 | 0.00 | 99 | 1018.4 |
| 20260901124148 | 14 | 113 | 0.0 | 0.0 | 0.00 | 0.00 | 0.00 | 99 | 1018.4 |
| 20260901123644 | 14 | 133 | 0.0 | 0.0 | 0.00 | 0.00 | 0.00 | 99 | 1018.4 |
| 20260901123143 | 14 | 112 | 0.0 | 0.0 | 0.00 | 0.00 | 0.00 | 99 | 1018.5 |
| 20260901122641 | 14 | 126 | 0.0 | 0.0 | 0.00 | 0.00 | 0.00 | 99 | 1018.6 |
| 20260901122137 | 14 | 141 | 0.0 | 0.0 | 0.00 | 0.00 | 0.00 | 99 | 1018.4 |
| 20260901121631 | 14 | 140 | 0.0 | 0.0 | 0.00 | 0.00 | 0.00 | 99 | 1018.5 |
| 20260901121126 | 14 | 140 | 0.0 | 0.0 | 0.00 | 0.00 | 0.00 | 99 | 1018.5 |
| 20260901120621 | 14 | 139 | 0.0 | 0.0 | 0.00 | 0.00 | 0.00 | 99 | 1018.4 |
| 20260901120116 | 14 | 137 | 0.0 | 0.0 | 0.00 | 0.00 | 0.00 | 99 | 1018.4 |
| 20260901115611 | 14 | 131 | 0.0 | 0.0 | 0.00 | 0.00 | 0.00 | 99 | 1018.2 |
| 20260901115108 | 14 | 154 | 0.0 | 0.0 | 0.00 | 0.00 | 0.00 | 99 | 1018.1 |
| 20260901114604 | 14 | 161 | 0.0 | 1.6 | 0.00 | 0.00 | 0.00 | 99 | 1018.3 |
| 20260901114102 | 14 | 149 | 0.0 | 0.0 | 0.00 | 0.00 | 0.00 | 99 | 1018.3 |
| 20260901113601 | 14 | 181 | 0.0 | 3.2 | 0.00 | 0.00 | 0.00 | 99 | 1018.3 |
| 20260901113052 | 14 | 153 | 0.0 | 0.0 | 0.00 | 0.00 | 0.00 | 99 | 1018.4 |
| 20260901112551 | 14 | 173 | 0.0 | 0.0 | 0.00 | 0.00 | 0.00 | 99 | 1018.4 |
| 20260901112045 | 14 | 174 | 0.0 | 0.0 | 0.00 | 0.00 | 0.00 | 99 | 1018.2 |
| 20260901111544 | 14 | 114 | 0.0 | 0.0 | 0.00 | 0.00 | 0.00 | 99 | 1018.3 |
| 20260901111043 | 14 | 155 | 0.0 | 0.0 | 0.00 | 0.00 | 0.00 | 99 | 1018.3 |
| 20260901110539 | 13 | 82 | 0.0 | 0.0 | 0.00 | 0.00 | 0.00 | 99 | 1018.3 |
| 20260901110034 | 13 | 158 | 0.0 | 0.0 | 0.00 | 0.00 | 0.00 | 99 | 1018.6 |
| 20260901105531 | 13 | 272 | 3.2 | 3.2 | 0.00 | 0.00 | 0.00 | 99 | 1018.2 |
| 20260901105030 | 13 | 222 | 1.6 | 3.2 | 0.00 | 0.00 | 0.00 | 99 | 1018.2 |
| 20260901104526 | 13 | 195 | 0.0 | 1.6 | 0.00 | 0.00 | 0.00 | 99 | 1018.2 |
| 20260901104021 | 13 | 172 | 0.0 | 0.0 | 0.00 | 0.00 | 0.00 | 99 | 1018.1 |
| 20260901103515 | 14 | 155 | 0.0 | 0.0 | 0.00 | 0.00 | 0.00 | 99 | 1017.9 |
| 20260901103012 | 14 | 131 | 0.0 | 0.0 | 0.00 | 0.00 | 0.00 | 99 | 1018.0 |
| 20260901102511 | 14 | 129 | 0.0 | 1.6 | 0.00 | 0.00 | 0.00 | 99 | 1018.0 |
| 20260901102006 | 14 | 119 | 3.2 | 3.2 | 0.00 | 0.00 | 0.00 | 99 | 1018.1 |
| 20260901101502 | 14 | 95 | 3.2 | 4.8 | 0.00 | 0.00 | 0.00 | 99 | 1018.0 |
| 20260901100955 | 15 | 119 | 0.0 | 0.0 | 0.00 | 0.00 | 0.00 | 99 | 1018.1 |
| 20260901100450 | 14 | 125 | 0.0 | 0.0 | 0.00 | 0.00 | 0.00 | 99 | 1018.0 |
| 20260901095943 | 14 | 106 | 0.0 | 0.0 | 0.00 | 0.00 | 0.00 | 99 | 1018.2 |
| 20260901095442 | 14 | 140 | 0.0 | 0.0 | 0.00 | 0.00 | 0.00 | 99 | 1018.2 |
| 20260901094936 | 14 | 163 | 0.0 | 0.0 | 0.00 | 0.00 | 0.00 | 99 | 1018.3 |
| 20260901094435 | 13 | 163 | 0.0 | 0.0 | 0.00 | 0.00 | 0.00 | 99 | 1018.3 |
| 20260901093929 | 13 | 163 | 0.0 | 0.0 | 0.00 | 0.00 | 0.00 | 99 | 1018.3 |
| 20260901093424 | 13 | 164 | 0.0 | 0.0 | 0.00 | 0.00 | 0.00 | 99 | 1018.2 |
| 20260901092919 | 13 | 165 | 0.0 | 0.0 | 0.00 | 0.00 | 0.00 | 99 | 1018.4 |
| 20260901092415 | 14 | 153 | 0.0 | 0.0 | 0.00 | 0.00 | 0.00 | 99 | 1018.3 |
| 20260901091911 | 14 | 162 | 0.0 | 0.0 | 0.00 | 0.00 | 0.00 | 99 | 1018.3 |
| 20260901091410 | 14 | 171 | 0.0 | 0.0 | 0.00 | 0.00 | 0.00 | 99 | 1018.1 |
| 20260901090905 | 14 | 161 | 0.0 | 0.0 | 0.00 | 0.00 | 0.00 | 99 | 1018.3 |
| 20260901090359 | 13 | 171 | 0.0 | 0.0 | 0.00 | 0.00 | 0.00 | 99 | 1018.5 |
| 20260901085856 | 13 | 159 | 0.0 | 0.0 | 0.00 | 0.00 | 0.00 | 98 | 1018.5 |
| 20260901085351 | 13 | 158 | 0.0 | 0.0 | 0.00 | 0.00 | 0.00 | 98 | 1018.4 |
| 20260901084847 | 13 | 165 | 0.0 | 0.0 | 0.00 | 0.00 | 0.00 | 98 | 1018.5 |
| 20260901084343 | 13 | 168 | 0.0 | 0.0 | 0.00 | 0.00 | 0.00 | 98 | 1018.4 |
| 20260901083839 | 14 | 170 | 0.0 | 0.0 | 0.00 | 0.00 | 0.00 | 98 | 1018.3 |
| 20260901083338 | 14 | 169 | 0.0 | 0.0 | 0.00 | 0.00 | 0.00 | 98 | 1018.4 |
| 20260901082836 | 13 | 182 | 0.0 | 0.0 | 0.00 | 0.00 | 0.00 | 98 | 1018.4 |
| 20260901082332 | 13 | 174 | 0.0 | 0.0 | 0.00 | 0.00 | 0.00 | 98 | 1018.7 |
| 20260901081827 | 13 | 211 | 0.0 | 0.0 | 0.00 | 0.00 | 0.00 | 98 | 1018.6 |
| 20260901081322 | 13 | 165 | 0.0 | 0.0 | 0.00 | 0.00 | 0.00 | 97 | 1018.5 |
| 20260901080817 | 13 | 165 | 0.0 | 0.0 | 0.00 | 0.00 | 0.00 | 97 | 1018.4 |
| 20260901080316 | 13 | 165 | 0.0 | 0.0 | 0.00 | 0.00 | 0.00 | 97 | 1018.4 |
| 20260901075810 | 13 | 165 | 0.0 | 0.0 | 0.00 | 0.00 | 0.00 | 97 | 1018.3 |
| 20260901075307 | 13 | 165 | 0.0 | 0.0 | 0.00 | 0.00 | 0.00 | 97 | 1018.6 |
| 20260901074801 | 13 | 165 | 0.0 | 0.0 | 0.00 | 0.00 | 0.00 | 97 | 1018.4 |
| 20260901074255 | 13 | 165 | 0.0 | 0.0 | 0.00 | 0.00 | 0.00 | 97 | 1018.7 |
| 20260901073751 | 13 | 165 | 0.0 | 0.0 | 0.00 | 0.00 | 0.00 | 97 | 1018.7 |
| 20260901073246 | 13 | 165 | 0.0 | 0.0 | 0.00 | 0.00 | 0.00 | 97 | 1018.3 |
| 20260901072742 | 14 | 167 | 0.0 | 0.0 | 0.00 | 0.00 | 0.00 | 97 | 1018.4 |
| 20260901072236 | 14 | 168 | 0.0 | 0.0 | 0.00 | 0.00 | 0.00 | 97 | 1018.4 |
| 20260901071730 | 14 | 173 | 0.0 | 0.0 | 0.00 | 0.00 | 0.00 | 97 | 1018.6 |
| 20260901071224 | 14 | 165 | 0.0 | 0.0 | 0.00 | 0.00 | 0.00 | 97 | 1018.3 |
| 20260901070718 | 14 | 165 | 0.0 | 0.0 | 0.00 | 0.00 | 0.00 | 97 | 1018.1 |
| 20260901070214 | 15 | 159 | 0.0 | 0.0 | 0.00 | 0.00 | 0.00 | 97 | 1018.3 |
| 20260901065713 | 14 | 171 | 0.0 | 0.0 | 0.00 | 0.00 | 0.00 | 97 | 1018.5 |
| 20260901065208 | 14 | 170 | 0.0 | 0.0 | 0.00 | 0.00 | 0.00 | 96 | 1018.3 |
| 20260901064705 | 14 | 165 | 0.0 | 0.0 | 0.00 | 0.00 | 0.00 | 96 | 1018.4 |
| 20260901064201 | 14 | 165 | 0.0 | 0.0 | 0.00 | 0.00 | 0.00 | 96 | 1018.5 |
| 20260901063658 | 15 | 165 | 0.0 | 0.0 | 0.00 | 0.00 | 0.00 | 96 | 1018.2 |
| 20260901063154 | 15 | 169 | 0.0 | 0.0 | 0.00 | 0.00 | 0.00 | 96 | 1018.2 |
| 20260901062649 | 15 | 185 | 0.0 | 0.0 | 0.00 | 0.00 | 0.00 | 96 | 1018.3 |
| 20260901062145 | 15 | 162 | 0.0 | 0.0 | 0.00 | 0.00 | 0.00 | 96 | 1018.0 |
| 20260901061641 | 15 | 166 | 0.0 | 0.0 | 0.00 | 0.00 | 0.00 | 95 | 1018.2 |
| 20260901061140 | 15 | 160 | 0.0 | 0.0 | 0.00 | 0.00 | 0.00 | 95 | 1018.4 |
| 20260901060640 | 15 | 160 | 0.0 | 0.0 | 0.00 | 0.00 | 0.00 | 95 | 1018.2 |
| 20260901060136 | 15 | 159 | 0.0 | 0.0 | 0.00 | 0.00 | 0.00 | 95 | 1018.0 |
| 20260901055632 | 15 | 165 | 0.0 | 0.0 | 0.00 | 0.00 | 0.00 | 95 | 1018.0 |
| 20260901055128 | 15 | 162 | 0.0 | 0.0 | 0.00 | 0.00 | 0.00 | 95 | 1017.9 |
| 20260901054625 | 15 | 176 | 0.0 | 0.0 | 0.00 | 0.00 | 0.00 | 95 | 1018.1 |
| 20260901054121 | 15 | 210 | 0.0 | 0.0 | 0.00 | 0.00 | 0.00 | 94 | 1018.1 |
| 20260901053617 | 15 | 164 | 0.0 | 0.0 | 0.00 | 0.00 | 0.00 | 94 | 1018.2 |
| 20260901053112 | 15 | 164 | 0.0 | 0.0 | 0.00 | 0.00 | 0.00 | 94 | 1018.1 |
| 20260901052612 | 15 | 165 | 0.0 | 0.0 | 0.00 | 0.00 | 0.00 | 94 | 1018.3 |
| 20260901052108 | 15 | 171 | 0.0 | 0.0 | 0.00 | 0.00 | 0.00 | 94 | 1018.0 |
| 20260901051607 | 15 | 164 | 0.0 | 0.0 | 0.00 | 0.00 | 0.00 | 94 | 1018.2 |
| 20260901051106 | 15 | 164 | 0.0 | 0.0 | 0.00 | 0.00 | 0.00 | 93 | 1018.0 |
| 20260901050601 | 15 | 164 | 0.0 | 0.0 | 0.00 | 0.00 | 0.00 | 93 | 1017.9 |
| 20260901050056 | 16 | 163 | 0.0 | 0.0 | 0.00 | 0.00 | 0.00 | 93 | 1018.1 |
| 20260901045552 | 16 | 176 | 0.0 | 0.0 | 0.00 | 0.00 | 0.00 | 93 | 1018.0 |
| 20260901045046 | 16 | 179 | 0.0 | 1.6 | 0.00 | 0.00 | 0.00 | 93 | 1018.1 |
| 20260901044542 | 16 | 256 | 1.6 | 1.6 | 0.00 | 0.00 | 0.00 | 93 | 1018.3 |
| 20260901044038 | 16 | 190 | 1.6 | 1.6 | 0.00 | 0.00 | 0.00 | 92 | 1018.1 |
| 20260901043533 | 16 | 173 | 0.0 | 0.0 | 0.00 | 0.00 | 0.00 | 92 | 1018.0 |
| 20260901043029 | 16 | 170 | 0.0 | 0.0 | 0.00 | 0.00 | 0.00 | 91 | 1018.0 |
| 20260901042528 | 16 | 179 | 0.0 | 0.0 | 0.00 | 0.00 | 0.00 | 91 | 1018.1 |
| 20260901042023 | 16 | 194 | 0.0 | 1.6 | 0.00 | 0.00 | 0.00 | 90 | 1017.9 |
| 20260901041513 | 16 | 183 | 1.6 | 1.6 | 0.00 | 0.00 | 0.00 | 90 | 1018.0 |
| 20260901041008 | 16 | 169 | 0.0 | 0.0 | 0.00 | 0.00 | 0.00 | 90 | 1017.9 |
| 20260901040502 | 16 | 173 | 0.0 | 0.0 | 0.00 | 0.00 | 0.00 | 89 | 1017.7 |
| 20260901040001 | 16 | 174 | 1.6 | 3.2 | 0.00 | 0.00 | 0.00 | 89 | 1017.5 |
| 20260901035459 | 16 | 164 | 0.0 | 0.0 | 0.00 | 0.00 | 0.00 | 89 | 1017.4 |
| 20260901034953 | 17 | 239 | 3.2 | 3.2 | 0.00 | 0.00 | 0.00 | 88 | 1017.6 |
| 20260901034452 | 17 | 182 | 1.6 | 1.6 | 0.00 | 0.00 | 0.00 | 88 | 1017.5 |
| 20260901033948 | 17 | 170 | 0.0 | 1.6 | 0.00 | 0.00 | 0.00 | 87 | 1017.4 |
| 20260901033446 | 17 | 193 | 1.6 | 1.6 | 0.00 | 0.00 | 0.00 | 87 | 1017.2 |
| 20260901032945 | 17 | 164 | 0.0 | 0.0 | 0.00 | 0.00 | 0.00 | 86 | 1017.3 |
| 20260901032440 | 17 | 177 | 0.0 | 0.0 | 0.00 | 0.00 | 0.00 | 86 | 1017.2 |
| 20260901031935 | 17 | 165 | 0.0 | 0.0 | 0.00 | 0.00 | 0.00 | 85 | 1017.3 |
| 20260901031431 | 17 | 176 | 0.0 | 0.0 | 0.00 | 0.00 | 0.00 | 85 | 1017.0 |
| 20260901030930 | 17 | 147 | 0.0 | 0.0 | 0.00 | 0.00 | 0.00 | 85 | 1017.4 |
| 20260901030426 | 17 | 184 | 0.0 | 1.6 | 0.00 | 0.00 | 0.00 | 84 | 1017.1 |
| 20260901025925 | 17 | 250 | 3.2 | 3.2 | 0.00 | 0.00 | 0.00 | 84 | 1017.0 |
| 20260901025420 | 17 | 164 | 0.0 | 1.6 | 0.00 | 0.00 | 0.00 | 83 | 1017.2 |
| 20260901024919 | 18 | 164 | 0.0 | 0.0 | 0.00 | 0.00 | 0.00 | 82 | 1017.0 |
| 20260901024414 | 18 | 160 | 0.0 | 0.0 | 0.00 | 0.00 | 0.00 | 82 | 1017.1 |
| 20260901023913 | 18 | 123 | 0.0 | 0.0 | 0.00 | 0.00 | 0.00 | 81 | 1016.9 |
| 20260901023407 | 18 | 174 | 0.0 | 0.0 | 0.00 | 0.00 | 0.00 | 80 | 1016.9 |
| 20260901022902 | 18 | 165 | 0.0 | 1.6 | 0.00 | 0.00 | 0.00 | 80 | 1016.9 |
| 20260901022359 | 19 | 24 | 0.0 | 1.6 | 0.00 | 0.00 | 0.00 | 79 | 1017.2 |
| 20260901021853 | 19 | 173 | 0.0 | 1.6 | 0.00 | 0.00 | 0.00 | 78 | 1017.1 |
| 20260901021349 | 20 | 62 | 1.6 | 3.2 | 0.00 | 0.00 | 0.00 | 78 | 1016.9 |
| 20260901020843 | 20 | 129 | 0.0 | 1.6 | 0.00 | 0.00 | 0.00 | 77 | 1016.7 |
| 20260901020338 | 20 | 145 | 0.0 | 3.2 | 0.00 | 0.00 | 0.00 | 75 | 1017.0 |
| 20260901015833 | 20 | 149 | 0.0 | 0.0 | 0.00 | 0.00 | 0.00 | 75 | 1017.0 |
| 20260901015329 | 20 | 178 | 0.0 | 1.6 | 0.00 | 0.00 | 0.00 | 74 | 1017.0 |
| 20260901014828 | 20 | 68 | 3.2 | 4.8 | 0.00 | 0.00 | 0.00 | 74 | 1016.9 |
| 20260901014325 | 20 | 120 | 0.0 | 4.8 | 0.00 | 0.00 | 0.00 | 73 | 1016.7 |
| 20260901013820 | 21 | 40 | 0.0 | 4.8 | 0.00 | 0.00 | 0.00 | 72 | 1016.8 |
| 20260901013315 | 21 | 151 | 0.0 | 3.2 | 0.00 | 0.00 | 0.00 | 71 | 1017.0 |
| 20260901012811 | 21 | 85 | 0.0 | 1.6 | 0.00 | 0.00 | 0.00 | 71 | 1017.0 |
| 20260901012310 | 22 | 126 | 0.0 | 1.6 | 0.00 | 0.00 | 0.00 | 70 | 1016.8 |
| 20260901011806 | 22 | 108 | 1.6 | 3.2 | 0.00 | 0.00 | 0.00 | 69 | 1016.9 |
| 20260901011302 | 22 | 146 | 0.0 | 4.8 | 0.00 | 0.00 | 0.00 | 68 | 1016.8 |
| 20260901010756 | 22 | 182 | 1.6 | 3.2 | 0.00 | 0.00 | 0.00 | 68 | 1016.8 |
| 20260901010250 | 23 | 180 | 0.0 | 9.7 | 0.00 | 0.00 | 0.00 | 67 | 1016.8 |
| 20260901005749 | 23 | 273 | 4.8 | 6.4 | 0.00 | 0.00 | 0.00 | 66 | 1016.7 |
| 20260901005244 | 23 | 232 | 3.2 | 6.4 | 0.00 | 0.00 | 0.00 | 66 | 1016.8 |
| 20260901004738 | 23 | 219 | 3.2 | 9.7 | 0.00 | 0.00 | 0.00 | 65 | 1016.9 |
| 20260901004233 | 24 | 115 | 1.6 | 4.8 | 0.00 | 0.00 | 0.00 | 64 | 1016.9 |
| 20260901003728 | 25 | 226 | 4.8 | 9.7 | 0.00 | 0.00 | 0.00 | 63 | 1016.9 |
| 20260901003227 | 25 | 168 | 1.6 | 3.2 | 0.00 | 0.00 | 0.00 | 63 | 1016.7 |
| 20260901002721 | 25 | 197 | 3.2 | 4.8 | 0.00 | 0.00 | 0.00 | 63 | 1016.7 |
| 20260901002216 | 25 | 335 | 1.6 | 3.2 | 0.00 | 0.00 | 0.00 | 62 | 1016.9 |
| 20260901001711 | 25 | 307 | 0.0 | 3.2 | 0.00 | 0.00 | 0.00 | 64 | 1016.6 |
| 20260901001206 | 25 | 260 | 3.2 | 9.7 | 0.00 | 0.00 | 0.00 | 63 | 1016.8 |
| 20260901000701 | 26 | 251 | 3.2 | 9.7 | 0.00 | 0.00 | 0.00 | 62 | 1016.9 |
| 20260901000157 | 26 | 163 | 1.6 | 4.8 | 0.00 | 0.00 | 0.00 | 61 | 1016.7 |
| 20260831235650 | 26 | 164 | 0.0 | 4.8 | 0.00 | 0.00 | 0.00 | 61 | 1016.6 |
| 20260831235146 | 26 | 129 | 3.2 | 3.2 | 0.00 | 0.00 | 0.00 | 62 | 1016.6 |
| 20260831234645 | 26 | 151 | 1.6 | 3.2 | 0.00 | 0.00 | 0.00 | 61 | 1016.8 |
| 20260831234141 | 26 | 147 | 3.2 | 6.4 | 0.00 | 0.00 | 0.00 | 61 | 1016.7 |
| 20260831233636 | 26 | 285 | 6.4 | 6.4 | 0.00 | 0.00 | 0.00 | 61 | 1016.5 |
| 20260831233132 | 26 | 283 | 8.0 | 9.7 | 0.00 | 0.00 | 0.00 | 60 | 1016.6 |
| 20260831232626 | 26 | 143 | 3.2 | 4.8 | 0.00 | 0.00 | 0.00 | 60 | 1016.6 |
| 20260831232123 | 26 | 46 | 1.6 | 9.7 | 0.00 | 0.00 | 0.00 | 60 | 1016.5 |
| 20260831231619 | 27 | 197 | 1.6 | 3.2 | 0.00 | 0.00 | 0.00 | 59 | 1016.4 |
| 20260831231114 | 27 | 202 | 4.8 | 11.3 | 0.00 | 0.00 | 0.00 | 59 | 1016.5 |
| 20260831230610 | 27 | 223 | 4.8 | 6.4 | 0.00 | 0.00 | 0.00 | 59 | 1016.6 |
| 20260831230109 | 27 | 110 | 0.0 | 3.2 | 0.00 | 0.00 | 0.00 | 61 | 1016.8 |
| 20260831225604 | 27 | 135 | 0.0 | 9.7 | 0.00 | 0.00 | 0.00 | 61 | 1016.4 |
| 20260831225104 | 27 | 159 | 1.6 | 3.2 | 0.00 | 0.00 | 0.00 | 59 | 1016.6 |
| 20260831224600 | 27 | 89 | 3.2 | 3.2 | 0.00 | 0.00 | 0.00 | 61 | 1016.8 |
| 20260831224055 | 27 | 62 | 3.2 | 4.8 | 0.00 | 0.00 | 0.00 | 61 | 1016.6 |
| 20260831223551 | 27 | 149 | 6.4 | 6.4 | 0.00 | 0.00 | 0.00 | 60 | 1016.7 |
| 20260831223047 | 27 | 283 | 1.6 | 6.4 | 0.00 | 0.00 | 0.00 | 61 | 1016.7 |
| 20260831222543 | 27 | 28 | 4.8 | 11.3 | 0.00 | 0.00 | 0.00 | 61 | 1016.7 |
| 20260831222042 | 27 | 38 | 3.2 | 4.8 | 0.00 | 0.00 | 0.00 | 60 | 1016.7 |
| 20260831221538 | 27 | 219 | 6.4 | 11.3 | 0.00 | 0.00 | 0.00 | 61 | 1016.9 |
| 20260831221033 | 28 | 344 | 4.8 | 9.7 | 0.00 | 0.00 | 0.00 | 59 | 1017.0 |
| 20260831220528 | 28 | 165 | 0.0 | 12.9 | 0.00 | 0.00 | 0.00 | 60 | 1016.8 |
| 20260831220024 | 27 | 269 | 1.6 | 4.8 | 0.00 | 0.00 | 0.00 | 61 | 1017.2 |
| 20260831215519 | 27 | 96 | 1.6 | 16.1 | 0.00 | 0.00 | 0.00 | 62 | 1017.1 |
| 20260831215015 | 27 | 163 | 4.8 | 9.7 | 0.00 | 0.00 | 0.00 | 60 | 1017.0 |
| 20260831214513 | 27 | 267 | 8.0 | 12.9 | 0.00 | 0.00 | 0.00 | 60 | 1017.1 |
| 20260831214008 | 27 | 109 | 1.6 | 4.8 | 0.00 | 0.00 | 0.00 | 61 | 1017.2 |
| 20260831213504 | 28 | 210 | 3.2 | 9.7 | 0.00 | 0.00 | 0.00 | 61 | 1017.2 |
| 20260831213004 | 28 | 272 | 8.0 | 11.3 | 0.00 | 0.00 | 0.00 | 60 | 1017.3 |
| 20260831212500 | 27 | 130 | 1.6 | 6.4 | 0.00 | 0.00 | 0.00 | 62 | 1017.3 |
| 20260831211955 | 27 | 84 | 1.6 | 3.2 | 0.00 | 0.00 | 0.00 | 63 | 1017.2 |
| 20260831211450 | 28 | 69 | 1.6 | 9.7 | 0.00 | 0.00 | 0.00 | 62 | 1017.2 |
| 20260831210949 | 28 | 234 | 6.4 | 9.7 | 0.00 | 0.00 | 0.00 | 61 | 1017.3 |
| 20260831210444 | 28 | 227 | 6.4 | 9.7 | 0.00 | 0.00 | 0.00 | 61 | 1017.1 |
| 20260831205940 | 27 | 278 | 9.7 | 11.3 | 0.00 | 0.00 | 0.00 | 61 | 1017.6 |
| 20260831205435 | 27 | 166 | 4.8 | 11.3 | 0.00 | 0.00 | 0.00 | 61 | 1017.2 |
| 20260831204930 | 27 | 180 | 3.2 | 6.4 | 0.00 | 0.00 | 0.00 | 61 | 1017.5 |
| 20260831204430 | 27 | 161 | 1.6 | 9.7 | 0.00 | 0.00 | 0.00 | 62 | 1017.2 |
| 20260831203923 | 27 | 318 | 3.2 | 4.8 | 0.00 | 0.00 | 0.00 | 63 | 1017.3 |
| 20260831203418 | 27 | 292 | 8.0 | 12.9 | 0.00 | 0.00 | 0.00 | 62 | 1017.7 |
| 20260831202916 | 27 | 95 | 3.2 | 6.4 | 0.00 | 0.00 | 0.00 | 62 | 1017.3 |
| 20260831202411 | 27 | 50 | 3.2 | 4.8 | 0.00 | 0.00 | 0.00 | 63 | 1017.4 |
| 20260831201906 | 27 | 31 | 1.6 | 6.4 | 0.00 | 0.00 | 0.00 | 63 | 1017.5 |